Location: Arrodets-la-Barthe
(43.0306°N, 0.2829°E)
Time: 13:04:08
(UTC+00:00)

Feng Yun 1-1 Rocket - Visible Passes

Search period start: 29 May 2022 00:00
Search period end: 08 June 2022 00:00
Orbit: 829 x 934 km, 99.2° (Epoch: 28 May)

Date Brightness Start Highest point End Pass type
(mag) Time Alt. Az. Time Alt. Az. Time Alt. Az.
29 May 6.4 20:06:43 10° SSW 20:11:01 24° W 20:15:18 10° NW visible
30 May 6.4 20:03:46 10° SSW 20:08:11 25° W 20:12:35 10° NW visible
31 May 6.3 20:00:50 10° SSW 20:05:21 26° W 20:09:51 10° NW visible
